Weather History for Fort Rucker / Ozark, AL

Change the Weather History Date:

Monday, August 19, 2013

  Actual Average (KOZR) Record (KOZR)
Temperature  
Mean Temperature 80 °F -  
Max Temperature 87 °F 87 °F 98 °F (2011)
Min Temperature 73 °F 67 °F 66 °F (2001)
Cooling Degree Days 15    
Growing Degree Days 30 (Base 50)    
Moisture  
Dew Point 74 °F    
Average Humidity 80    
Maximum Humidity 94    
Minimum Humidity 62    
Precipitation  
Precipitation 2.23 in - - ()
Sea Level Pressure  
Sea Level Pressure 29.89 in    
Wind  
Wind Speed 2 mph (East)    
Max Wind Speed 12 mph    
Max Gust Speed 30 mph    
Visibility 8 miles    
Events Fog , Rain , Thunderstorm    
Averages and records for this station are not official NWS values.
T = Trace of Precipitation, MM = Missing Value Source: NWS Daily Summary

Daily Weather History Graph

Daily Weather History Graph

Search for Another Location

Airport:

Trip Planner

Search our weather history database for the weather conditions in past years. The results will help you decide how hot, cold, wet, or windy it might be!

Date:

Astronomy

Aug. 19, 2013 Rise Set
Actual Time 6:10 AM CDT 7:21 PM CDT
Civil Twilight 5:45 AM CDT 7:46 PM CDT
Nautical Twilight 5:15 AM CDT 8:16 PM CDT
Astronomical Twilight 4:44 AM CDT 8:47 PM CDT
Moon 6:11 PM CDT (8/19) 4:31 AM CDT (8/19)
Length of Visible Light 14h 00m
Length of Day
13h 10m
Waxing Gibbous, 97% of the Moon is Illuminated
Aug 19
Waxing Gibbous
Aug 20
Full
Aug 28
Last Quarter
Sep 5
New
Sep 12
First Quarter

Hourly Weather History & Observations

Time (CDT) Temp. Heat Index Dew Point Humidity Pressure Visibility Wind Dir Wind Speed Gust Speed Precip Events Conditions
11:23 AM 82.4 °F 89.5 °F 75.2 °F 79% 30.09 in 10.0 mi ESE 3.5 mph - N/A   Overcast
11:53 AM 84.9 °F 92.1 °F 73.9 °F 69% 29.75 in 10.0 mi East 3.5 mph - N/A   Mostly Cloudy
12:53 PM 84.9 °F 91.4 °F 73.0 °F 67% 29.74 in 10.0 mi Calm Calm - N/A   Overcast
1:09 PM 87.8 °F 95.6 °F 73.4 °F 62% 30.06 in 10.0 mi Calm Calm - N/A   Mostly Cloudy
1:37 PM 87.8 °F 95.6 °F 73.4 °F 62% 30.05 in 10.0 mi ESE 3.5 mph - N/A   Mostly Cloudy
1:46 PM 86.0 °F 93.4 °F 73.4 °F 66% 30.04 in 10.0 mi Calm Calm - N/A   Mostly Cloudy
1:53 PM 86.0 °F 93.0 °F 73.0 °F 65% 29.71 in 10.0 mi Calm Calm - N/A   Overcast
2:53 PM 86.0 °F 93.0 °F 73.0 °F 65% 29.69 in 10.0 mi ESE 3.5 mph - N/A   Scattered Clouds
3:53 PM 84.0 °F 92.6 °F 75.9 °F 76% 29.68 in 10.0 mi Calm Calm - N/A   Partly Cloudy
4:14 PM 82.4 °F 90.9 °F 77.0 °F 84% 30.01 in 9.0 mi Calm Calm - 0.00 in Rain , Thunderstorm Light Thunderstorms and Rain
4:53 PM 84.0 °F 96.0 °F 79.0 °F 85% 29.68 in 10.0 mi Calm Calm - 0.01 in   Partly Cloudy
5:53 PM 86.0 °F 95.1 °F 75.0 °F 70% 29.66 in 10.0 mi Calm Calm - N/A   Clear
6:53 PM 82.9 °F 91.8 °F 77.0 °F 82% 29.68 in 10.0 mi Calm Calm - N/A   Clear
7:53 PM 82.0 °F 90.2 °F 77.0 °F 85% 29.69 in 10.0 mi Calm Calm - N/A   Clear
8:25 PM 80.6 °F 86.2 °F 75.2 °F 84% 30.03 in 10.0 mi Calm Calm - N/A Thunderstorm Thunderstorm
8:41 PM 82.4 °F 89.5 °F 75.2 °F 79% 30.03 in 10.0 mi NE 4.6 mph - N/A   Clear
8:53 PM 82.0 °F 89.4 °F 75.9 °F 82% 29.72 in 10.0 mi NNE 3.5 mph - N/A Thunderstorm Thunderstorm
9:14 PM 80.6 °F 86.2 °F 75.2 °F 84% 30.05 in 10.0 mi Calm Calm - N/A   Overcast
9:33 PM 80.6 °F 86.2 °F 75.2 °F 84% 30.05 in 10.0 mi South 3.5 mph - N/A   Overcast
9:40 PM 80.6 °F 86.2 °F 75.2 °F 84% 30.05 in 10.0 mi Variable 3.5 mph - 0.00 in Rain , Thunderstorm Light Thunderstorms and Rain
9:53 PM 78.1 °F - 75.0 °F 90% 29.73 in 1.2 mi SSE 3.5 mph - 0.15 in Rain , Thunderstorm Heavy Thunderstorms and Rain
10:01 PM 78.8 °F - 73.4 °F 83% 30.07 in 0.5 mi Variable 4.6 mph - 0.23 in Rain , Thunderstorm Heavy Thunderstorms and Rain
10:14 PM 73.4 °F - 69.8 °F 88% 30.07 in 0.5 mi WNW 11.5 mph 18.4 mph 1.14 in Fog , Rain , Thunderstorm Heavy Thunderstorms and Rain
10:32 PM 73.4 °F - 71.6 °F 94% 30.06 in 1.0 mi NW 6.9 mph 29.9 mph 1.81 in Rain , Thunderstorm Heavy Thunderstorms and Rain
10:47 PM 73.4 °F - 69.8 °F 88% 30.06 in 2.0 mi NNW 5.8 mph - 2.04 in Rain , Thunderstorm Thunderstorms and Rain
10:53 PM 73.0 °F - 70.0 °F 90% 29.73 in 5.0 mi Calm Calm - 2.05 in Rain , Thunderstorm Light Thunderstorms and Rain
11:11 PM 73.4 °F - 69.8 °F 88% 30.07 in 10.0 mi Calm Calm - 0.00 in Rain Light Rain
11:53 PM 73.9 °F - 72.0 °F 93% 29.74 in 10.0 mi Calm Calm - 0.02 in Rain Light Rain